Valparaiso, IN

4:59 PM CDT on March 27, 2017 (GMT -0500)
Porter County Municipal

Weather History for KVPZ - June, 2013

Change the Weather History Date:

Saturday, June 8, 2013

  Actual Average Record
Temperature  
Mean Temperature 63 °F 67 °F  
Max Temperature 77 °F 78 °F 96 °F (2011)
Min Temperature 49 °F 56 °F 43 °F (1998)
Degree Days  
Heating Degree Days 2 2  
Month to date heating degree days 35 22  
Since 1 June heating degree days 35 22  
Since 1 July heating degree days 6091 6301  
Cooling Degree Days 0 4  
Month to date cooling degree days 7 29  
Year to date cooling degree days 108 76  
Since 1 June cooling degree days 7 29  
Growing Degree Days 14 (Base 50)    
Moisture  
Dew Point 49 °F    
Average Humidity 61    
Maximum Humidity 86    
Minimum Humidity 40    
Precipitation  
Precipitation 0.00 in 0.13 in 0.62 in (2015)
Month to date precipitation 0.10 1.08  
Year to date precipitation 13.73 14.06  
Sea Level Pressure  
Sea Level Pressure 29.97 in    
Wind  
Wind Speed 4 mph (ENE)    
Max Wind Speed 12 mph    
Max Gust Speed 16 mph    
Visibility 10 miles    
Events      
T = Trace of Precipitation, MM = Missing Value Source: NWS Daily Summary

Daily Weather History Graph

Daily Weather History Graph

Search for Another Location

Airport or City:

Trip Planner

Search our weather history database for the weather conditions in past years. The results will help you decide how hot, cold, wet, or windy it might be!

Date:

Astronomy

Jun. 08, 2013 Rise Set
Actual Time 5:14 AM CDT 8:20 PM CDT
Civil Twilight 4:40 AM CDT 8:53 PM CDT
Nautical Twilight 3:57 AM CDT 9:37 PM CDT
Astronomical Twilight 3:06 AM CDT 10:28 PM CDT
Moon 5:22 AM CDT (6/8) 8:21 PM CDT (6/8)
Length of Visible Light 16h 13m
Length of Day
15h 05m
New Moon, 0% of the Moon is Illuminated
Jun 8
New Moon
Jun 16
First Quarter
Jun 23
Full
Jun 29
Last Quarter
Jul 8
New

Hourly Weather History & Observations

Time (CDT) Temp. Dew Point Humidity Pressure Visibility Wind Dir Wind Speed Gust Speed Precip Events Conditions
12:53 AM 52.0 °F 44.1 °F 74% 29.92 in 10.0 mi NNW 3.5 mph - N/A   Clear
1:53 AM 53.1 °F 46.0 °F 77% 29.92 in 10.0 mi Calm Calm - N/A   Unknown
2:53 AM 51.1 °F 46.0 °F 83% 29.93 in 10.0 mi Calm Calm - N/A   Mostly Cloudy
3:53 AM 51.1 °F 46.0 °F 83% 29.94 in 10.0 mi Calm Calm - N/A   Scattered Clouds
4:53 AM 50.0 °F 46.0 °F 86% 29.94 in 10.0 mi Calm Calm - N/A   Mostly Cloudy
5:53 AM 52.0 °F 46.0 °F 80% 29.96 in 10.0 mi Calm Calm - N/A   Partly Cloudy
6:53 AM 57.0 °F 48.0 °F 72% 29.97 in 10.0 mi Calm Calm - N/A   Partly Cloudy
7:53 AM 63.0 °F 52.0 °F 67% 29.98 in 10.0 mi Calm Calm - N/A   Clear
8:53 AM 66.9 °F 51.1 °F 57% 29.99 in 10.0 mi SE 4.6 mph - N/A   Clear
9:53 AM 69.1 °F 50.0 °F 51% 29.99 in 10.0 mi SE 4.6 mph - N/A   Clear
10:53 AM 71.1 °F 51.1 °F 49% 29.97 in 10.0 mi South 8.1 mph - N/A   Partly Cloudy
11:53 AM 73.0 °F 51.1 °F 46% 29.98 in 10.0 mi SE 5.8 mph - N/A   Partly Cloudy
12:53 PM 73.0 °F 52.0 °F 48% 29.97 in 10.0 mi SE 5.8 mph - N/A   Scattered Clouds
1:53 PM 77.0 °F 51.1 °F 40% 29.96 in 10.0 mi Variable 3.5 mph - N/A   Scattered Clouds
2:53 PM 73.0 °F 53.1 °F 49% 29.96 in 10.0 mi North 9.2 mph - N/A   Mostly Cloudy
3:53 PM 73.0 °F 51.1 °F 46% 29.97 in 10.0 mi Variable 6.9 mph - N/A   Mostly Cloudy
4:53 PM 72.0 °F 51.1 °F 48% 29.98 in 10.0 mi North 4.6 mph - N/A   Clear
5:53 PM 71.1 °F 50.0 °F 47% 29.99 in 10.0 mi North 6.9 mph - N/A   Clear
6:53 PM 68.0 °F 48.9 °F 50% 29.99 in 10.0 mi NNE 4.6 mph - N/A   Clear
7:53 PM 66.0 °F 46.0 °F 48% 30.00 in 10.0 mi NE 5.8 mph - N/A   Clear
8:53 PM 63.0 °F 46.9 °F 56% 30.00 in 10.0 mi NE 3.5 mph - N/A   Clear
9:53 PM 60.1 °F 48.0 °F 64% 30.01 in 10.0 mi NE 3.5 mph - N/A   Clear
10:53 PM 59.0 °F 48.9 °F 69% 30.01 in 10.0 mi ENE 4.6 mph - N/A   Partly Cloudy
11:53 PM 59.0 °F 48.9 °F 69% 30.01 in 10.0 mi East 4.6 mph - N/A   Partly Cloudy